Regional Weather Roundup
Issued by NWS

Home | Current Version | Previous Version | Text Only | Print | Product List | Glossary Off
Versions: 1 2 3 4 5 6 7 8 9 10 11 12 13 14 15 16 17 18 19 20 21 22 23 24 25 26 27

000
ASUS45 KCYS 140410
RWRWY

WYOMING REGIONAL WEATHER ROUNDUP
NATIONAL WEATHER SERVICE CHEYENNE WY
900 PM MST WED DEC 13 2017

NOTE:  "FAIR" INDICATES FEW OR NO CLOUDS BELOW 12,000 FEET
WITH NO SIGNIFICANT WEATHER AND/OR OBSTRUCTIONS TO VISIBILITY.

WYZ001-140500-
YELLOWSTONE NATIONAL PARK

CITY           SKY/WX    TMP DP  RH WIND       PRES   REMARKS
LK YELLOWSTONE   N/A     21  19  92 CALM      30.28R
W YELLOWSTONE  NOT AVBL

$$
WYZ002>013-054>058-071-098>099-140500-
NORTHERN WYOMING

CITY           SKY/WX    TMP DP  RH WIND       PRES   REMARKS
JACKSON        FLURRIES  23  22  96 CALM        N/A
CODY           CLOUDY    31  29  92 CALM      30.28R
GREYBULL       CLOUDY    34  30  85 NW18      30.23R WCI  23
WORLAND        CLOUDY    33  30  88 NW3       30.24R
SHERIDAN       CLOUDY    39  25  57 NW18      30.23R WCI  30
BUFFALO        FAIR      37  21  52 N25G36    30.18R WCI  25
GILLETTE       MOCLDY    33  19  56 NW13      30.15R WCI  24
HULETT         CLOUDY    34  23  64 NW5       30.14R WCI  30
NEWCASTLE      FAIR      32  21  64 NW13G21   30.12R WCI  22

$$
WYZ014>020-022>026-101>103-140500-
CENTRAL WYOMING

CITY           SKY/WX    TMP DP  RH WIND       PRES   REMARKS
BIG PINEY      CLOUDY    28  22  78 E7        30.17R WCI  21
PINEDALE       FAIR      27  21  80 W5        30.17R WCI  21
DUBOIS         LGT SNOW  27  25  93 SE5       30.20R WCI  21
LANDER         LGT SNOW  29  28  96 NW8       30.23R VSB 3/4 WCI  21
RIVERTON       LGT SNOW  29  28  96 NE5       30.23R FOG     WCI  24
CASPER         CLOUDY    30  29  96 S3        30.18S FOG
DOUGLAS        CLOUDY    35  20  54 NW13      30.17R WCI  26

$$
WYZ021-027>030-104>119-140500-
SOUTHERN WYOMING

CITY           SKY/WX    TMP DP  RH WIND       PRES   REMARKS
EVANSTON       FLURRIES  27  26  96 N8        30.18R WCI  19
FORT BRIDGER   FLURRIES  30  25  79 W10       30.18R WCI  21
ROCK SPRINGS   CLOUDY    28  24  85 NE8       30.17R WCI  20
DIXON          CLOUDY    33  26  77 N8        30.13S WCI  25
RAWLINS        CLOUDY    28  26  92 N10       30.14S FOG     WCI  19
SARATOGA       LGT SNOW  28  28 100 N8        30.13R WCI  20
LARAMIE        LGT SNOW  26  26 100 N7        30.10R FOG     WCI  18
CHEYENNE       LGT SNOW  31  27  85 N12G23    30.12R FOG     WCI  22
TORRINGTON     CLOUDY    38  19  46 N12       30.13R WCI  30
PINE BLUFFS    CLOUDY    36  14  41 MISG      30.12R

$$




USA.gov is the U.S. government's official web portal to all federal, state and local government web resources and services.